This is the latest recevied weather packets stored in our database for station/object VE2XOX. If no packets are shown the sender has not sent any weather packets the latest 10 day(s).
| Time | Temp. | Humidity | Pressure | Rain* | Wind** | Luminosity | Snow |
|---|---|---|---|---|---|---|---|
| 1778032516 | 12.78° C | 89% | 1002.3 hPa | 4.06 mm | - | - | - |
| 1778032229 | 12.78° C | 89% | 1002.2 hPa | 5.08 mm | - | - | - |
| 1778031915 | 12.78° C | 88% | 1002.5 hPa | 5.08 mm | - | - | - |
| 1778031621 | 13.33° C | 88% | 1002.5 hPa | 5.08 mm | - | - | - |
| 1778031333 | 13.33° C | 87% | 1002.6 hPa | 4.06 mm | - | - | - |
| 1778031016 | 13.33° C | 87% | 1002.4 hPa | 3.05 mm | - | - | - |
| 1778030723 | 13.33° C | 86% | 1002.3 hPa | 3.05 mm | - | - | - |
| 1778030432 | 13.33° C | 86% | 1002.1 hPa | 2.03 mm | - | - | - |
| 1778030115 | 13.89° C | 85% | 1002 hPa | 2.03 mm | - | - | - |
| 1778029821 | 13.89° C | 85% | 1001.8 hPa | 2.03 mm | - | - | - |
| 1778029534 | 13.89° C | 86% | 1001.9 hPa | 1.02 mm | - | - | - |
| 1778029217 | 13.89° C | 88% | 1001.9 hPa | 1.02 mm | - | - | - |
| 1778028924 | 13.89° C | 90% | 1001.9 hPa | 1.02 mm | - | - | - |
| 1778028637 | 13.89° C | 90% | 1001.6 hPa | 1.02 mm | - | - | - |
| 1778028322 | 13.89° C | 90% | 1001.4 hPa | 2.03 mm | - | - | - |
| 1778028012 | 14.44° C | 90% | 1001.3 hPa | 3.05 mm | - | - | - |
| 1778027720 | 14.44° C | 90% | 1001.2 hPa | 6.1 mm | - | - | - |
| 1778027429 | 14.44° C | 90% | 1001 hPa | 7.11 mm | - | - | - |
| 1778027115 | 14.44° C | 90% | 1001.1 hPa | 7.11 mm | - | - | - |
| 1778026821 | 14.44° C | 90% | 1001 hPa | 7.11 mm | - | - | - |
| 1778026534 | 14.44° C | 90% | 1000.9 hPa | 7.11 mm | - | - | - |
| 1778026218 | 14.44° C | 90% | 1001 hPa | 7.11 mm | - | - | - |
| 1778025925 | 14.44° C | 90% | 1000.9 hPa | 7.11 mm | - | - | - |
| 1778025321 | 14.44° C | 89% | 1000.8 hPa | 7.11 mm | - | - | - |
| 1778025027 | 14.44° C | 89% | 1000.7 hPa | 6.1 mm | - | - | - |
* Rain latest hour (hover to see other rain measurements)
** Current wind speed in m/s (hover to see current wind gust speed)